OneWeb SL0415

operational
NORAD ID: 51624 Int'l Des: 2022-012 Owner: ONEWEBN Country: UK Constellation: oneweb
LEOCIRCULARPOLARONEWEB_TYPE

About OneWeb SL0415

Description loading...

Live Position

Loading 3D Globe...

Upcoming Passes

Altitude History

Altitude vs Time

uPlot chart will show altitude changes over time

Two-Line Element Set

1 51624U 22012C 25354.63856234 -.00000574 00000-0 -16811-2 0 9998
2 51624 87.8805 71.8634 0001428 101.5154 258.6134 13.10374164185909
Epoch: Dec 20, 2025 • Age: 13 hours

Current Status

Altitude 1232.0 km
Velocity 7.25 km/s
Sub-Earth Point 65.06°N, 86.13°E
Launch Date Feb 10, 2022
Age 3.8 years
Type internet

Technical Details

Classification Payload
Mass 148.00 kg
Dry Mass 140.00 kg
Total Mass 148.00 kg
Length 1.30 m
Diameter 1.00 m
Span 5.00 m
Shape Trapezoid+2 pan
Manufacturer ONEWUS
Bus Type ARROW
Phase Status In Orbit
Owner/State ONEWEBN/UK

Large Constellations

Loading constellations...